Temp
-28 -30 -30 -32 -32 -32 -32 -32 -32 -30 -30 -31 -31 -32 -32 -32 -31 -31 -32 -32 -31 -31 -30 -28 -27 -26 -25 -24 -24 -23 -23 -22 -21 -20 -18 -17 -17 -16
-30 -31 -32 -32 -32 -32 -32 -32 -32 -31 -30 -31 -31 -31 -32 -32 -32 -31 -31 -32 -32 -32 -31 -30 -29 -28 -26 -25 -25 -24 -24 -23 -23 -21 -20 -19 -18 -17
-31 -32 -32 -32 -32 -33 -32 -32 -32 -32 -31 -32 -32 -32 -33 -32 -32 -32 -32 -32 -32 -32 -32 -32 -31 -30 -29 -27 -26 -25 -25 -24 -24 -23 -22 -21 -19 -18
-32 -32 -32 -32 -33 -32 -32 -32 -32 -33 -33 -33 -33 -33 -33 -34 -33 -33 -33 -33 -32 -32 -32 -32 -32 -32 -31 -29 -27 -26 -25 -25 -25 -24 -24 -23 -21 -19
-32 -32 -33 -33 -32 -32 -32 -32 -33 -33 -33 -33 -34 -34 -34 -34 -34 -34 -34 -34 -33 -33 -32 -32 -32 -32 -32 -31 -30 -28 -26 -25 -25 -25 -25 -24 -23 -21
-32 -32 -32 -32 -32 -32 -32 -33 -33 -33 -34 -34 -34 -34 -34 -35 -35 -35 -34 -34 -35 -34 -33 -32 -32 -32 -32 -32 -31 -30 -28 -26 -25 -25 -25 -25 -25 -23
-33 -33 -33 -33 -32 -33 -33 -33 -33 -33 -34 -34 -34 -35 -35 -36 -36 -36 -35 -35 -35 -35 -34 -33 -32 -32 -32 -32 -32 -31 -31 -28 -26 -25 -25 -25 -25 -24
-33 -33 -33 -32 -32 -33 -33 -33 -33 -33 -34 -34 -35 -35 -36 -37 -36 -36 -36 -36 -36 -35 -35 -34 -33 -32 -32 -32 -32 -32 -31 -31 -28 -26 -26 -25 -25 -25
-33 -33 -33 -32 -32 -33 -33 -33 -33 -34 -34 -34 -35 -35 -36 -37 -37 -37 -37 -37 -36 -36 -35 -34 -33 -32 -32 -32 -32 -32 -32 -31 -31 -29 -27 -26 -26 -25
-33 -33 -33 -32 -33 -33 -33 -33 -33 -33 -34 -34 -34 -35 -36 -36 -37 -37 -37 -37 -37 -37 -36 -35 -33 -33 -32 -32 -32 -32 -32 -32 -32 -31 -30 -28 -28 -26
-33 -33 -33 -33 -33 -33 -33 -33 -33 -33 -34 -34 -34 -35 -36 -37 -37 -37 -37 -37 -37 -36 -35 -34 -34 -33 -32 -32 -32 -32 -33 -32 -32 -31 -30 -30 -29 -28
-33 -33 -33 -33 -33 -33 -33 -33 -33 -33 -33 -33 -34 -35 -36 -36 -37 -37 -37 -37 -36 -35 -35 -34 -34 -33 -32 -32 -32 -32 -33 -32 -32 -31 -31 -31 -30 -29
-33 -33 -33 -33 -33 -33 -33 -33 -33 -33 -33 -33 -33 -34 -35 -36 -36 -37 -37 -36 -36 -35 -34 -34 -34 -33 -32 -32 -32 -32 -32 -32 -32 -31 -31 -31 -31 -30
-33 -33 -33 -33 -33 -33 -33 -33 -33 -33 -33 -33 -33 -33 -34 -35 -35 -36 -36 -35 -35 -34 -34 -34 -34 -33 -32 -31 -32 -32 -32 -32 -32 -31 -31 -31 -31 -30
-33 -33 -33 -33 -33 -34 -34 -34 -33 -33 -33 -33 -33 -33 -33 -34 -34 -35 -35 -35 -35 -34 -34 -34 -33 -32 -31 -31 -31 -31 -32 -32 -31 -32 -31 -31 -31 -30
-33 -33 -33 -33 -34 -34 -34 -34 -33 -33 -33 -33 -33 -34 -33 -33 -33 -34 -34 -34 -34 -33 -33 -33 -32 -32 -31 -31 -31 -31 -31 -32 -32 -31 -31 -31 -31 -31
-34 -34 -34 -34 -34 -34 -34 -34 -34 -33 -33 -33 -33 -33 -34 -33 -33 -33 -33 -33 -33 -32 -32 -32 -32 -31 -31 -31 -31 -31 -31 -31 -31 -31 -31 -31 -31 -31
-34 -34 -34 -34 -34 -35 -34 -34 -34 -34 -33 -33 -33 -33 -33 -34 -34 -33 -33 -33 -32 -32 -32 -31 -31 -31 -31 -31 -31 -31 -31 -31 -31 -31 -31 -31 -31 -31
-35 -35 -35 -35 -35 -35 -35 -34 -34 -34 -34 -33 -33 -33 -33 -33 -33 -33 -33 -33 -33 -32 -32 -31 -31 -31 -31 -31 -31 -31 -31 -31 -31 -31 -30 -30 -30 -30
-35 -35 -35 -35 -35 -35 -35 -35 -34 -34 -34 -34 -33 -33 -33 -33 -33 -33 -33 -33 -33 -32 -32 -32 -32 -31 -31 -31 -31 -31 -31 -30 -31 -31 -31 -31 -31 -31
-36 -36 -36 -36 -36 -36 -35 -35 -35 -34 -34 -34 -34 -33 -33 -33 -33 -33 -33 -32 -32 -32 -32 -31 -31 -31 -31 -31 -31 -30 -30 -30 -30 -30 -30 -31 -31 -31
-36 -36 -36 -36 -36 -36 -36 -36 -35 -35 -35 -34 -34 -34 -34 -33 -33 -33 -33 -32 -32 -32 -32 -32 -32 -31 -31 -31 -31 -31 -31 -30 -30 -30 -30 -30 -31 -31
-36 -36 -36 -37 -37 -37 -37 -36 -36 -36 -35 -35 -34 -34 -34 -34 -33 -33 -33 -32 -32 -32 -32 -32 -32 -32 -32 -31 -31 -31 -31 -31 -31 -31 -31 -31 -31 -31
Height
5492 5484 5476 5470 5464 5457 5451 5444 5439 5438 5439 5438 5433 5427 5424 5421 5420 5421 5421 5423 5425 5429 5434 5443 5452 5464 5476 5491 5506 5519 5533 5550 5565 5580 5593 5604 5615 5626
5479 5473 5466 5460 5454 5446 5439 5433 5426 5421 5421 5419 5417 5411 5407 5406 5404 5403 5405 5408 5411 5414 5418 5423 5430 5438 5450 5465 5479 5494 5509 5526 5542 5557 5570 5583 5595 5606
5468 5463 5456 5449 5442 5435 5428 5420 5413 5405 5401 5406 5397 5394 5392 5388 5387 5386 5388 5391 5396 5400 5404 5409 5414 5419 5428 5440 5455 5471 5486 5503 5520 5534 5549 5562 5571 5582
5458 5452 5445 5438 5431 5424 5416 5408 5400 5393 5388 5388 5385 5379 5375 5372 5371 5370 5371 5372 5376 5383 5389 5395 5400 5406 5412 5420 5432 5446 5463 5480 5497 5514 5526 5542 5553 5565
5449 5442 5436 5428 5421 5414 5405 5397 5390 5383 5376 5371 5372 5363 5357 5354 5353 5352 5354 5356 5358 5364 5371 5379 5386 5392 5399 5406 5414 5426 5440 5456 5477 5493 5505 5519 5532 5546
5438 5432 5425 5417 5409 5401 5394 5387 5380 5373 5366 5358 5354 5347 5339 5335 5333 5333 5336 5339 5343 5347 5354 5363 5372 5380 5387 5395 5401 5410 5420 5434 5452 5471 5486 5499 5508 5522
5429 5423 5415 5406 5398 5390 5383 5377 5370 5363 5355 5345 5337 5329 5322 5317 5315 5316 5319 5323 5329 5334 5338 5346 5356 5367 5375 5384 5390 5398 5406 5415 5431 5449 5464 5477 5490 5505
5421 5413 5405 5396 5389 5381 5374 5368 5361 5353 5342 5331 5322 5313 5306 5303 5301 5302 5304 5308 5315 5318 5324 5331 5342 5353 5363 5372 5380 5388 5396 5404 5414 5429 5444 5458 5472 5484
5411 5404 5396 5387 5380 5374 5368 5360 5352 5342 5331 5320 5310 5301 5296 5291 5290 5291 5292 5295 5300 5305 5311 5319 5328 5340 5350 5361 5370 5379 5387 5394 5403 5413 5426 5440 5453 5466
5403 5395 5388 5379 5372 5366 5360 5354 5345 5334 5324 5312 5301 5292 5287 5283 5280 5280 5280 5284 5289 5294 5301 5310 5318 5328 5340 5351 5361 5371 5379 5386 5395 5404 5412 5423 5435 5448
5394 5387 5379 5371 5365 5359 5354 5347 5338 5328 5318 5307 5296 5288 5282 5277 5275 5275 5277 5280 5284 5288 5295 5303 5310 5321 5331 5342 5352 5362 5371 5377 5386 5395 5404 5412 5423 5434
5387 5379 5372 5364 5358 5352 5348 5341 5333 5324 5315 5304 5294 5286 5280 5275 5273 5274 5276 5279 5281 5285 5292 5299 5305 5314 5324 5335 5344 5354 5362 5370 5378 5387 5395 5403 5411 5420
5380 5373 5365 5358 5352 5347 5342 5336 5329 5321 5312 5302 5294 5286 5280 5276 5274 5274 5276 5278 5281 5284 5291 5297 5303 5310 5319 5330 5339 5348 5357 5364 5372 5380 5388 5395 5403 5411
5374 5366 5359 5352 5347 5342 5337 5332 5326 5319 5311 5302 5295 5288 5283 5278 5276 5276 5277 5279 5281 5285 5290 5294 5299 5306 5315 5326 5334 5342 5350 5358 5365 5373 5380 5387 5394 5402
5367 5360 5354 5347 5342 5336 5333 5329 5324 5318 5311 5303 5296 5291 5286 5282 5279 5277 5278 5280 5282 5285 5288 5292 5298 5306 5314 5323 5330 5337 5344 5351 5358 5365 5371 5378 5384 5390
5361 5355 5348 5342 5338 5334 5329 5326 5322 5317 5311 5305 5299 5293 5289 5286 5283 5281 5280 5281 5283 5286 5289 5294 5300 5306 5313 5319 5326 5332 5338 5343 5349 5355 5363 5369 5374 5379
5357 5350 5343 5337 5333 5329 5325 5322 5319 5315 5311 5306 5301 5296 5292 5289 5287 5286 5285 5285 5286 5289 5292 5296 5301 5306 5312 5317 5322 5328 5332 5336 5341 5347 5352 5357 5361 5365
5353 5346 5340 5335 5330 5326 5322 5318 5316 5313 5310 5307 5303 5299 5295 5292 5290 5289 5288 5288 5289 5291 5294 5297 5301 5306 5310 5314 5318 5322 5326 5329 5333 5337 5340 5345 5348 5353
5349 5344 5338 5332 5327 5323 5319 5316 5312 5310 5308 5306 5303 5301 5298 5295 5293 5291 5290 5290 5291 5293 5295 5297 5301 5304 5307 5309 5312 5315 5319 5322 5325 5327 5330 5334 5338 5344
5345 5340 5335 5330 5325 5320 5316 5312 5310 5307 5306 5304 5302 5300 5299 5297 5295 5294 5292 5292 5292 5293 5295 5297 5299 5302 5304 5306 5308 5310 5312 5314 5316 5319 5322 5325 5328 5331
5341 5337 5332 5327 5322 5317 5313 5309 5306 5303 5301 5300 5299 5298 5298 5297 5296 5295 5295 5294 5294 5295 5296 5298 5300 5302 5304 5306 5308 5310 5312 5313 5315 5317 5319 5321 5323 5325
5336 5332 5328 5324 5319 5314 5309 5305 5302 5299 5297 5295 5294 5294 5294 5294 5294 5294 5294 5295 5295 5296 5297 5298 5300 5302 5304 5306 5308 5310 5311 5313 5315 5316 5318 5320 5322 5323
5330 5327 5323 5320 5316 5311 5306 5302 5297 5294 5291 5289 5288 5288 5289 5289 5290 5290 5291 5292 5293 5294 5295 5297 5299 5300 5302 5304 5306 5308 5310 5311 5313 5314 5316 5318 5319 5321
Wind_Speed
67 56 44 36 39 44 47 48 49 44 41 41 43 46 48 50 49 45 42 42 46 53 61 72 85 95 99 97 91 89 88 86 85 85 87 87 86 83
49 39 37 39 43 46 45 48 53 51 45 45 44 46 48 50 52 52 48 44 42 43 49 54 62 72 85 93 92 88 87 86 84 84 85 88 89 88
39 38 40 44 46 47 50 53 50 52 52 41 43 42 42 44 45 49 52 52 48 44 44 44 47 56 66 76 87 89 87 84 83 82 83 85 91 94
39 41 43 47 48 49 52 49 48 44 45 43 42 44 46 46 45 44 45 50 54 51 48 46 44 45 54 65 73 80 86 86 82 81 83 85 88 94
39 42 46 48 47 51 46 46 40 43 45 45 42 46 47 46 46 47 46 43 47 54 54 50 47 45 44 52 63 73 78 83 82 82 84 84 85 89
40 43 48 49 50 47 46 38 40 41 45 49 48 48 47 44 44 45 46 45 43 45 52 54 51 48 44 43 50 59 73 80 81 82 84 85 87 88
41 45 47 48 49 46 40 38 39 43 47 49 49 46 42 40 39 40 41 43 43 41 45 51 53 50 48 44 44 47 56 73 80 81 84 88 89 86
40 43 45 47 44 42 36 37 40 45 47 49 45 42 37 35 32 33 36 39 38 41 41 46 49 50 50 47 45 44 46 54 72 81 83 85 86 88
41 41 43 46 41 36 33 36 41 45 47 46 41 36 29 29 30 32 35 38 37 39 39 42 45 46 49 50 46 44 42 43 45 64 79 84 86 87
39 41 41 42 39 32 32 34 40 42 45 41 36 30 25 24 23 23 24 25 25 29 33 36 40 42 46 50 46 42 37 38 39 41 48 72 83 88
39 40 41 38 35 28 30 33 38 40 43 37 31 26 22 19 16 13 13 14 18 23 27 30 35 37 44 51 46 47 41 41 43 48 46 47 50 81
38 39 39 33 32 27 28 30 34 37 39 34 29 23 18 14 8 8 10 11 14 20 24 28 31 35 45 51 48 50 47 42 43 45 44 53 55 56
36 36 35 30 29 24 26 29 32 34 35 32 27 22 15 10 5 6 9 10 13 19 22 22 23 32 45 48 46 49 51 45 40 41 40 42 45 59
35 34 34 28 27 22 23 26 29 31 32 31 25 21 15 8 2 2 6 9 14 17 19 21 24 34 44 45 42 45 51 51 45 43 40 43 42 43
34 33 32 27 25 23 21 24 26 27 29 28 24 19 14 10 5 2 5 8 11 15 17 20 25 33 38 39 38 35 42 48 54 48 47 46 49 51
34 33 31 26 22 22 19 20 21 23 25 25 23 18 14 10 6 3 3 6 9 11 14 18 22 27 30 31 30 29 35 35 39 47 52 50 50 52
32 32 31 27 24 23 21 18 18 20 20 21 21 18 14 9 6 4 4 6 9 12 16 19 22 24 25 25 26 27 29 31 35 40 45 48 49 54
31 31 30 26 23 21 22 19 17 17 17 17 17 16 14 10 5 2 4 6 9 11 14 16 19 20 21 22 23 24 27 29 31 35 38 40 41 41
29 30 29 26 23 22 19 19 17 16 16 15 14 13 11 9 7 3 3 6 9 11 13 15 16 18 19 22 23 25 27 30 32 34 36 39 41 42
27 28 29 28 25 22 20 18 17 15 15 15 13 11 9 6 4 5 6 7 9 10 12 12 13 13 13 12 12 11 13 15 17 21 25 28 33 36
26 26 28 28 28 25 22 20 18 17 16 16 15 12 10 8 4 2 4 6 8 11 13 13 13 13 12 11 11 10 10 10 10 10 11 12 12 14
25 25 26 27 28 29 26 22 19 18 18 17 19 18 14 11 11 9 8 9 10 11 12 13 13 13 12 11 11 10 10 9 9 9 9 8 9 11
25 25 24 25 27 29 29 27 23 20 19 19 19 20 22 18 15 15 15 14 14 15 15 15 15 15 14 14 13 13 12 12 11 10 10 9 9 9
Wind_Direction
307 306 304 307 307 307 304 301 299 297 293 288 284 279 275 273 271 266 263 256 248 246 244 244 244 243 240 239 238 235 234 231 230 227 227 227 227 227
307 306 307 310 311 310 307 305 304 301 297 294 288 281 275 271 268 265 260 254 249 242 240 238 239 239 240 240 237 235 233 231 228 228 226 227 227 227
308 312 312 313 314 312 309 307 304 302 301 301 295 288 282 276 268 262 258 254 248 242 239 237 235 234 232 234 237 235 232 230 227 226 226 225 227 226
308 312 316 316 314 312 311 307 305 302 301 301 296 291 284 278 272 267 260 254 249 243 238 236 235 234 231 227 226 231 232 230 226 225 224 225 226 225
309 314 316 315 313 313 310 309 306 305 305 304 302 296 290 281 272 265 261 257 251 244 239 234 232 233 231 227 225 222 223 227 226 222 223 223 224 225
312 314 316 315 315 315 314 310 309 308 307 306 305 299 292 283 272 264 257 254 253 248 240 235 231 230 229 226 222 225 220 219 222 221 221 221 223 223
313 315 316 316 319 316 314 311 311 312 311 310 308 302 292 283 270 262 255 250 249 251 241 234 231 227 225 225 223 220 226 221 216 217 219 220 223 224
315 317 317 318 318 316 313 313 314 316 318 317 313 304 295 281 266 258 253 250 245 245 243 230 228 224 221 220 223 218 223 226 219 215 216 219 221 223
319 317 318 319 318 315 314 316 320 323 325 323 318 311 301 281 270 262 255 251 249 244 237 225 223 221 216 216 218 217 221 218 222 221 216 216 219 221
318 320 321 319 318 316 316 319 325 329 330 328 325 318 308 292 281 266 255 248 237 230 224 217 220 218 210 211 215 213 213 216 212 218 222 220 218 219
321 322 322 320 319 316 317 324 331 334 335 335 335 329 320 309 288 257 232 231 228 220 208 207 216 213 204 205 210 205 210 221 219 215 215 212 222 224
325 325 325 320 321 317 322 328 334 338 339 341 344 343 335 333 301 230 228 234 223 203 200 200 211 205 199 201 207 205 210 216 220 215 215 218 217 210
326 327 329 323 324 319 325 331 337 341 344 346 349 353 353 350 354 226 219 225 202 197 193 202 211 202 198 200 206 209 211 218 222 220 220 219 221 220
328 330 333 327 328 320 325 333 337 344 347 351 352 359 2 9 5 206 211 199 195 201 203 215 209 198 196 200 206 212 215 219 222 223 225 226 222 214
332 331 334 331 331 327 323 330 337 345 349 353 357 0 9 14 33 114 183 197 204 212 212 205 196 192 196 203 207 215 218 224 226 226 228 229 228 230
335 335 337 333 330 334 318 324 333 343 348 354 360 5 12 25 35 74 128 154 158 169 179 186 190 194 200 205 210 214 217 223 224 227 230 233 236 235
338 339 340 338 332 334 332 317 327 336 345 353 358 7 14 24 47 79 129 152 159 167 175 183 189 195 200 205 211 216 220 223 225 226 230 234 237 238
341 343 343 339 334 328 333 324 314 324 336 345 354 2 11 18 32 85 134 158 168 175 180 186 193 200 208 216 221 224 227 228 228 229 230 233 235 236
340 343 343 342 337 335 327 330 318 308 318 331 339 349 359 17 33 57 154 182 184 187 192 197 205 214 222 229 233 233 232 232 233 234 236 238 239 238
334 341 344 345 343 336 332 325 326 313 295 303 316 322 330 342 27 71 99 130 154 167 175 180 184 185 188 194 197 198 204 209 214 219 225 231 238 242
328 333 340 345 347 344 336 327 318 310 309 285 285 294 294 291 280 216 159 149 148 149 153 156 158 159 159 159 161 159 157 161 164 172 182 194 206 218
320 324 331 338 345 346 345 338 325 312 297 291 276 269 273 266 256 234 219 206 192 184 181 177 174 174 175 177 177 179 178 176 177 174 178 185 194 206
314 314 321 327 334 343 346 344 337 327 312 296 275 263 256 258 253 243 228 221 217 210 203 200 196 193 195 197 199 200 201 202 204 204 202 203 200 202